Regional Weather Roundup
Issued by NWS Newport/Morehead, NC

Current Version | Previous Version | Graphics & Text | Print | Product List | Glossary Off
Versions: 1 2 3 4 5 6 7 8 9 10 11 12 13 14 15 16 17 18 19 20 21 22 23 24 25 26 27 28 29 30 31 32 33 34 35 36 37 38 39 40 41 42 43 44 45 46 47 48 49 50

000
ASUS42 KMHX 280525
RWRMHX
WEATHER ROUNDUP FOR EASTERN NORTH CAROLINA
NATIONAL WEATHER SERVICE NEWPORT/MOREHEAD CITY NC
100 AM EDT THU MAY 28 2015

NOTE: "FAIR" INDICATES FEW OR NO CLOUDS BELOW 12,000 FEET
WITH NO SIGNIFICANT WEATHER AND/OR OBSTRUCTIONS TO VISIBILITY

NCZ015>017-031-032-045>047-102-103-280600-
NORTH COAST

CITY           SKY/WX    TMP DP  RH WIND       PRES   REMARKS
EDENTON        PTCLDY    71  65  84 S8        30.23S
ELIZABETH CITY PTCLDY    70  65  84 S8        30.22F
KITTY HAWK     CLEAR     71  63  76 S3        30.22F
MANTEO         CLEAR     71  64  79 SW10      30.24F

$$

NCZ045>047-081-094-103-104-280600-
CENTRAL COAST

CITY           SKY/WX    TMP DP  RH WIND       PRES   REMARKS
FRISCO         CLEAR     71  61  70 SW7       30.25F
SWANQUARTER      N/A     73 N/A N/A S9        30.21S

$$

NCZ095-097-098-100-101-280600-
SOUTHERN COAST

CITY           SKY/WX    TMP DP  RH WIND       PRES   REMARKS
BEAUFORT       CLEAR     70  63  78 S3        30.24F
CEDAR ISLAND     N/A     70 N/A N/A S3        30.27F
JACKSONVILLE   PTCLDY    68  64  87 CALM      30.23S
PINEY ISLAND   CLEAR    N/A N/A N/A S5        30.24F
WILMINGTON     PTCLDY    72  64  76 S5        30.23S


$$

NCZ011>013-027>030-043-044-078>080-089-090>093-098-280600-
COASTAL PLAIN

CITY           SKY/WX    TMP DP  RH WIND       PRES   REMARKS
AHOSKIE        CLOUDY    71  65  83 S6        30.22S
CLINTON        CLOUDY    71  70  96 CALM      30.24F
ELIZABETHTOWN  MOCLDY    70  68  94 CALM      30.23F
GOLDSBORO      CLOUDY    71  67  88 CALM      30.21F
GREENVILLE     PTCLDY    72  68  88 S5        30.23F
HAVELOCK       CLEAR     65  62  90 CALM      30.25F
KENANSVILLE    MOCLDY    69  66  91 CALM      30.25S
KINSTON        MOCLDY    71  67  85 S6        30.24S
NEW BERN       PTCLDY    66  63  90 CALM      30.25F
RICHLANDS      PTCLDY    66  61  82 CALM      30.24S
ROCKY MOUNT    MOCLDY    71  69  93 S6        30.23S
WASHINGTON     PTCLDY    70  65  84 S3        30.23F
WHITEVILLE     PTCLDY    68  66  92 CALM      30.23S

$$

AMZ130-135-150-152-154-156-158-170-250-252-270-ANZ085-086-088-633-658-670-280600-
MARINE OBSERVATIONS

STATION/POSITION TIME  TEMP    WIND        PRES    WAVE   SWELL
                       AIR SEA DIR/SP/G            HT/PER HT/PER
                 (UTC) (F)     (DEG/KT/KT) (MB)    (FT/S) (FT/S)
CHESAPEAKE LIGHT 0500   66     180/ 20/ 21 1023.1
64 E VA BEACH    0450   66 64  190/  8/  8 1023.8    3/ 7   2/ 7
DUCK             0500   72 55  200/ 13/ 15 1022.4
2 E DUCK         0411      58                N/A     2/ 4
OREGON INLET     0500   73 77  190/ 12/ 14 1023.9
13E OREGON INLT  0500      68                N/A     3/ 4
HATTERAS CG      0500   73 75  200/  4/  8 1023.8
DIAMOND BUOY     0450   74 77  200/  8/ 10 1024.5    3/ 8   2/ 8
CAPE LOOKOUT     0500   73     170/  4/  5 1023.8
BEAUFORT LAB     0500   74 76  190/  7/  9 1023.0
27 SE WRIGHTSVLE 0500      76  220/  6/ 10   N/A
5 SE WRIGHTSVLE  0408   75 77  180/  8/ 12 1023.8
225 S CAPE HAT   0450   73 74   80/  8/ 12 1023.8    4/ 8   3/ 8
41 SE CHARLESTON 0450   77 78  110/  6/  8 1022.7    3/ 8   3/ 8

$$


USA.gov is the U.S. government's official web portal to all federal, state and local government web resources and services.